Weather in Tumanovo

Russia / Smolensk Oblast     55°25′08″N   34°38′46″E
temp.,
°C
wind,
m/s
gust,
m/s
humid.,
%
clouds,
%
prec.,
mm/h
press.,
hPa
HPBL,
m
4 july, mon
mon400:00+18nne117592 0.0 101711
03:00+17ene118290 0.0 101711
06:00+18ese1183100 0.0 101712
09:00+23wnw007091 0.0 1016230
12:00+26nne225777 0.0 1016749
15:00+27nne125137 0.0 10161151
18:00+27ese115796 0.0 1014739
21:00+18ne338597 0.6 101539
5 july, tue
tue500:00+17se008955 1.9 101611
03:00+16se229175 1.9 101515
06:00+18ssw229099 0.3 101557
09:00+22sw2376100 0.3 1015371
12:00+25ssw346678 1.8 1015780
15:00+27ssw345599 1.9 10141490
18:00+24w577168 0.5 1014365
21:00+19s228613 0.8 101422
6 july, wed
wed600:00+18sw339185 0.1 101533
03:00+16w229177 0.1 101515
06:00+17wnw229177 0.0 101568
09:00+21wnw117758 0.0 1015386
12:00+24wsw2366100 1.4 10141050
15:00+25w135877 2.2 10141324
18:00+26ssw135885 0.0 10121110
21:00+17w3591100 0.1 1013135
7 july, thu
thu700:00+14nw2296100 0.0 101331
03:00+14nw4696100 0.3 1013288
06:00+14nw369778 0.3 1014297
09:00+16wnw3484100 0.3 1015533
12:00+16wnw2282100 0.0 1016233
15:00+18sw116867 0.0 1016343
18:00+20n0161100 0.0 1016477
21:00+16ene11745 0.0 101611
8 july, fri
fri800:00+14ene2285100 0.0 101614
03:00+13e228399 0.1 101619
06:00+15ese1392100 0.1 1015105
09:00+16ene359961 3.6 1015178
12:00+23s457358 0.1 10141049
15:00+25sw456522 0.9 10131138
18:00+24wsw24716 2.5 1013908
21:00+19wnw228254 5.8 101411